Location: Bli��� Lhota
(48.7570°N, 14.0120°E)
Time: 09:09:19
(UTC+00:00)

CZ-4C R/B - Pass Details

Date: 18 September 2020
Orbit: 626 x 1376 km, 63.4° (Epoch: 27 October)

Event Time Altitude Azimuth Distance (km) Brightness Sun altitude
Exits shadow 23:02:01 27° 23° (NNE) 1,684 4.1 -39.8°
Drops below altitude 10° 23:05:06 10° 37° (NE) 2,735 5.3 -39.8°
Sets 23:08:04 0° 43° (NE) 3,817 6.2 -39.8°
